Regional Weather Roundup
Issued by NWS

Home | Current Version | Previous Version | Graphics & Text | Print | Product List | Glossary On
Versions: 1 2 3 4 5 6 7 8 9 10 11 12 13 14 15 16 17 18 19 20 21 22 23 24 25 26 27 28 29 30 31 32 33 34 35 36 37 38 39 40 41 42 43 44 45 46 47 48 49 50
000
ASUS45 KBOU 271207
RWRCO

WEATHER ROUNDUP FOR COLORADO
NATIONAL WEATHER SERVICE DENVER/BOULDER CO
600 AM MDT THU JUL 27 2017

NOTE: "FAIR" INDICATES FEW OR NO CLOUDS BELOW 12000 FEET WITH NO
SIGNIFICANT WEATHER AND/OR OBSTRUCTIONS TO VISIBILITY.

COZ001>005-013-030-031-271300-
...NORTHWEST COLORADO...

CITY           SKY/WX    TMP DP  RH WIND       PRES   REMARKS
CRAIG          FAIR      53  52  96 CALM      30.29S
HAYDEN         FAIR      55  50  82 SE9       30.31S
MEEKER         FAIR      56  53  90 E5        30.30R
RABBIT EARS PA FAIR      52  46  82 SW6       30.59S
STEAMBOAT SPGS FAIR      53  52  97 CALM      30.34S
WALDEN         FAIR      50  46  87 CALM      30.43R
$$

COZ006>008-011-271300-
...WEST CENTRAL VALLEYS...

CITY           SKY/WX    TMP DP  RH WIND       PRES   REMARKS
GRAND JUNCTION FAIR      65  59  81 SE7       30.16S
MONTROSE       FAIR      63  56  78 SE6       30.26R
EAGLE          FAIR      56  52  86 SE3       30.36R
RIFLE          FAIR      63  57  81 E3        30.24R
DELTA          FAIR      64  55  75 NE5       30.22S
NUCLA          FAIR      61  54  77 E8        30.29R
$$

COZ017>023-064>068-271300-
...SOUTHWEST COLORADO...

CITY           SKY/WX    TMP DP  RH WIND       PRES   REMARKS
DURANGO        FAIR      58  52  80 N7        30.29R
CORTEZ         FAIR      58  55  90 CALM      30.23S
PAGOSA SPRINGS FAIR      56  48  74 CALM      30.38R
TELLURIDE      FAIR      53  51  92 E3        30.50R
WOLF CREEK PAS FAIR      46  43  87 NW3       30.74R
$$

COZ009-010-012-014-032>034-037-058>063-271300-
...CENTRAL COLORADO...

CITY           SKY/WX    TMP DP  RH WIND       PRES   REMARKS
ASPEN          FAIR      56  51  84 SW7       30.39S
BUENA VISTA    FAIR      55  52  91 W3        30.45R
COPPER MTN     FAIR      52  45  76 SW6       30.70F
BERTHOUD PASS  FAIR      41  32  70 NW14      30.72S
COTTONWOOD PAS FOG       54  52  94 E7        30.56R VSB 1/2
GUNNISON       FAIR      53  48  83 E3        30.42R
KREMMLING      FOG       59  55  88 CALM      30.41S VSB 1
LEADVILLE      MOCLDY    50  48  93 E5        30.55S
MONARCH PASS     N/A     46  45  93 N5        30.79S
SALIDA         FAIR      58  55  89 CALM      30.49S
SUNLIGHT       FAIR      50  46  87 E5        30.63S
WILKERSON PASS FAIR      46  45  93 CALM      30.68S
$$

COZ069>075-271300-
...SAN LUIS VALLEY/SANGRE DE CRISTO MOUNTAINS...

CITY           SKY/WX    TMP DP  RH WIND       PRES   REMARKS
ALAMOSA        FAIR      55  54  96 CALM      30.39R
DEL NORTE      MOCLDY    55  48  76 W10       30.43R
LA VETA PASS   NOT AVBL
SAGUACHE         N/A    N/A N/A N/A MISG        N/A
$$

COZ035-036-038>040-271300-
...NORTHERN COLORADO FRONT RANGE...

CITY           SKY/WX    TMP DP  RH WIND       PRES   REMARKS
DENVER INTL AP FAIR      61  58  90 SE9       30.22S
DMNS CITY PARK   N/A     61  60  95 E12       30.23R
AURORA         PTCLDY    61  61 100 SE10      30.25S
FRONT RANGE AP FAIR      63  61  94 SE7       30.26R
ERIE MUNI ARPT FAIR      58  57  96 CALM      30.21S
BOULDER MUN AP FAIR      61  59  94 CALM      30.21R
CENTENNIAL     FAIR      61  59  93 SE9       30.26S
BROOMFIELD     FAIR      61  57  88 CALM      30.24R
FORT COLLINS   FAIR      61  60  97 N7        30.22R FOG
LONGMONT       FAIR      61  58  90 CALM      30.22R FOG
$$

COZ041-046-047-076>085-087-088-271300-
...PIKES PEAK/PALMER DIVIDE AND SOUTHERN FOOTHILLS...

CITY           SKY/WX    TMP DP  RH WIND       PRES   REMARKS
COLO. SPRINGS  FAIR      61  60  97 NE8       30.30R
A. F. ACADEMY  FAIR      56  56  99 N5        30.31R
SCHRIEVER AFB  FOG       57  57 100 NE7       30.33R VSB 1/8
CHEYENNE MTN   FAIR      60  53  76 NW7       30.29R
ELLICOTT       FAIR     N/A N/A N/A S3        30.31R
FALCON           N/A     56  56  97 S7        30.36R
FORT CARSON    FAIR      60  57  91 NW3       30.27S
LIMON          MOCLDY    62  62 100 S3        30.28R
MONUMENT HILL  FAIR      54  54 100 E7        30.36R
CANON CITY     CLEAR     64  63  94 W8        30.26S
WALSENBURG     FAIR      61  57  88 SW8       30.32S
TRINIDAD       FAIR      62  58  86 SW3       30.30S
$$

COZ042>045-048>051-090-091-271300-
...NORTHEAST COLORADO...

CITY           SKY/WX    TMP DP  RH WIND       PRES   REMARKS
GREELEY ARPT   FAIR      61  61 100 CALM      30.21R FOG
AKRON          CLOUDY    65  63  93 SE7       30.24R FOG
BURLINGTON     CLOUDY    68  67  96 NE7       30.21S FOG
WRAY           NOT AVBL
YUMA           NOT AVBL
STERLING       FAIR      64  63  94 E5        30.19S
HOLYOKE        CLOUDY    70  64  83 E6        30.21R
FORT MORGAN    FAIR      62  60  94 E5        30.22S FOG
$$

COZ086-089-092>099-271300-
...SOUTHEAST COLORADO...

CITY           SKY/WX    TMP DP  RH WIND       PRES   REMARKS
PUEBLO         FAIR      63  61  93 S7        30.22S
LA JUNTA       MOCLDY    66  64  93 W8        30.20R
LAMAR          FAIR      70  68  93 E3        30.15R
SPRINGFIELD      N/A     66  64  93 W3        30.22R
$$



USA.gov is the U.S. government's official web portal to all federal, state and local government web resources and services.